Location: D�rnast
(49.6426°N, 11.9755°E)
Time: 10:55:12
(UTC+00:00)

N. Korean satellite - Pass Details

Date: 08 December 2021
Orbit: 447 x 490 km, 97.3° (Epoch: 27 January)

Event Time Altitude Azimuth Distance (km) Brightness Sun altitude
Rises 06:02:56 0° 353° (N) 2,467 9.8 -8.2°
Reaches altitude 10° 06:06:36 10° 310° (NW) 1,584 8.5 -7.7°
Maximum altitude 06:07:11 10° 300° (WNW) 1,561 8.4 -7.6°
Drops below altitude 10° 06:07:47 10° 290° (WNW) 1,581 8.5 -7.5°
Sets 06:11:26 0° 248° (WSW) 2,448 9.7 -7.0°
